Location: Unspecified
(0.0000°N, 0.0000°E)
Time: 13:24:07
(UTC+00:00)

Vanguard 3 - Pass Details

Date: 13 December 2025
Orbit: 507 x 3207 km, 33.3° (Epoch: 22 January)

Event Time Altitude Azimuth Distance (km) Brightness Sun altitude
Rises 09:50:24 0° 244° (WSW) 7,142 11.8 52.0°
Reaches altitude 10° 09:55:37 10° 248° (WSW) 6,014 11.5 53.0°
Maximum altitude 10:12:59 54° 320° (NW) 2,793 10.2 56.2°
Drops below altitude 10° 10:24:00 10° 35° (NE) 3,940 10.7 58.1°
Sets 10:26:41 0° 41° (NE) 4,616 11.0 58.5°
